TimeEDT,TemperatureF,Dew PointF,Humidity,Sea Level PressureIn,VisibilityMPH,Wind Direction,Wind SpeedMPH,Gust SpeedMPH,PrecipitationIn,Events,Conditions,WindDirDegrees,DateUTC
12:15 AM,73.4,73.4,100,30.12,7.0,Calm,Calm,-,N/A,,Clear,0,2013-07-10 04:15:00
12:35 AM,75.2,75.2,100,30.12,10.0,Calm,Calm,-,N/A,,Clear,0,2013-07-10 04:35:00
12:55 AM,73.4,73.4,100,30.12,7.0,Calm,Calm,-,N/A,,Clear,0,2013-07-10 04:55:00
1:15 AM,73.4,73.4,100,30.12,7.0,Calm,Calm,-,N/A,,Clear,0,2013-07-10 05:15:00
1:35 AM,73.4,73.4,100,30.12,7.0,Calm,Calm,-,N/A,,Clear,0,2013-07-10 05:35:00
1:55 AM,73.4,73.4,100,30.11,7.0,Calm,Calm,-,N/A,,Clear,0,2013-07-10 05:55:00
2:15 AM,73.4,73.4,100,30.11,10.0,Calm,Calm,-,N/A,,Clear,0,2013-07-10 06:15:00
2:35 AM,73.4,73.4,100,30.10,7.0,Calm,Calm,-,N/A,,Clear,0,2013-07-10 06:35:00
2:55 AM,73.4,73.4,100,30.10,7.0,Calm,Calm,-,N/A,,Clear,0,2013-07-10 06:55:00
3:15 AM,73.4,73.4,100,30.10,7.0,Calm,Calm,-,N/A,,Clear,0,2013-07-10 07:15:00
3:55 AM,73.4,73.4,100,30.10,7.0,Calm,Calm,-,N/A,,Clear,0,2013-07-10 07:55:00
4:15 AM,73.4,73.4,100,30.09,7.0,Calm,Calm,-,N/A,,Clear,0,2013-07-10 08:15:00
4:35 AM,73.4,73.4,100,30.09,10.0,SSE,4.6,-,N/A,,Clear,150,2013-07-10 08:35:00
4:55 AM,73.4,73.4,100,30.09,10.0,SE,4.6,-,N/A,,Clear,140,2013-07-10 08:55:00
5:15 AM,73.4,73.4,100,30.09,10.0,SSE,4.6,-,N/A,,Clear,150,2013-07-10 09:15:00
5:35 AM,73.4,73.4,100,30.09,10.0,SSE,4.6,-,N/A,,Clear,150,2013-07-10 09:35:00
5:55 AM,73.4,73.4,100,30.08,10.0,SSE,5.8,-,N/A,,Clear,150,2013-07-10 09:55:00
6:15 AM,73.4,73.4,100,30.09,10.0,SSE,3.5,-,N/A,,Clear,150,2013-07-10 10:15:00
6:35 AM,73.4,73.4,100,30.09,10.0,SSE,3.5,-,N/A,,Clear,160,2013-07-10 10:35:00
6:55 AM,73.4,73.4,100,30.09,10.0,South,3.5,-,N/A,,Clear,170,2013-07-10 10:55:00
7:15 AM,73.4,73.4,100,30.10,10.0,Calm,Calm,-,N/A,,Clear,0,2013-07-10 11:15:00
7:35 AM,73.4,73.4,100,30.11,10.0,South,4.6,-,N/A,,Clear,170,2013-07-10 11:35:00
7:55 AM,73.4,73.4,100,30.11,10.0,South,3.5,-,N/A,,Mostly Cloudy,170,2013-07-10 11:55:00
8:15 AM,75.2,73.4,94,30.11,10.0,Calm,Calm,-,N/A,,Scattered Clouds,0,2013-07-10 12:15:00
8:35 AM,75.2,73.4,94,30.12,10.0,SSW,3.5,-,N/A,,Mostly Cloudy,210,2013-07-10 12:35:00
8:55 AM,77.0,75.2,94,30.12,10.0,SSW,4.6,-,N/A,,Overcast,200,2013-07-10 12:55:00
9:15 AM,77.0,75.2,94,30.12,10.0,Calm,Calm,-,N/A,,Overcast,0,2013-07-10 13:15:00
9:35 AM,78.8,75.2,89,30.12,10.0,SSW,6.9,-,N/A,,Overcast,200,2013-07-10 13:35:00
9:55 AM,80.6,75.2,84,30.12,10.0,South,5.8,-,N/A,,Scattered Clouds,190,2013-07-10 13:55:00
10:15 AM,82.4,75.2,79,30.12,10.0,South,3.5,-,N/A,,Mostly Cloudy,180,2013-07-10 14:15:00
10:35 AM,82.4,77.0,84,30.12,10.0,SSE,5.8,-,N/A,,Mostly Cloudy,150,2013-07-10 14:35:00
10:55 AM,80.6,75.2,84,30.12,10.0,Calm,Calm,-,N/A,,Mostly Cloudy,0,2013-07-10 14:55:00
11:15 AM,82.4,75.2,79,30.12,10.0,Calm,Calm,-,N/A,,Scattered Clouds,0,2013-07-10 15:15:00
11:35 AM,82.4,77.0,84,30.11,10.0,SSW,3.5,-,N/A,Rain,Rain,200,2013-07-10 15:35:00
11:55 AM,82.4,75.2,79,30.11,10.0,Calm,Calm,-,N/A,,Scattered Clouds,0,2013-07-10 15:55:00
12:15 PM,84.2,77.0,79,30.10,10.0,SSE,3.5,-,N/A,,Clear,150,2013-07-10 16:15:00
12:35 PM,86.0,77.0,74,30.09,10.0,SE,3.5,-,N/A,,Clear,140,2013-07-10 16:35:00
12:55 PM,87.8,77.0,70,30.08,10.0,ESE,5.8,-,N/A,,Clear,120,2013-07-10 16:55:00
1:15 PM,87.8,73.4,62,30.08,10.0,SE,3.5,-,N/A,,Clear,130,2013-07-10 17:15:00
1:35 PM,87.8,73.4,62,30.07,10.0,Calm,Calm,-,N/A,,Clear,0,2013-07-10 17:35:00
1:55 PM,89.6,73.4,59,30.06,10.0,SE,5.8,-,N/A,,Clear,130,2013-07-10 17:55:00
2:15 PM,89.6,75.2,62,30.05,10.0,SE,5.8,-,N/A,Thunderstorm,Scattered Clouds,130,2013-07-10 18:15:00
2:35 PM,89.6,75.2,62,30.05,10.0,East,5.8,-,N/A,Thunderstorm,Thunderstorm,80,2013-07-10 18:35:00
2:55 PM,80.6,71.6,74,30.06,10.0,NW,20.7,24.2,N/A,Thunderstorm,Thunderstorm,320,2013-07-10 18:55:00
3:15 PM,77.0,73.4,89,30.08,7.0,NNW,10.4,21.9,N/A,Rain-Thunderstorm,Thunderstorms and Rain,330,2013-07-10 19:15:00
3:35 PM,73.4,73.4,100,30.09,1.0,Calm,Calm,-,N/A,Rain-Thunderstorm,Heavy Thunderstorms and Rain,0,2013-07-10 19:35:00
3:55 PM,73.4,73.4,100,30.07,2.0,SSE,10.4,-,N/A,Rain-Thunderstorm,Heavy Thunderstorms and Rain,160,2013-07-10 19:55:00
4:15 PM,73.4,73.4,100,30.06,10.0,SE,3.5,-,N/A,Rain-Thunderstorm,Light Thunderstorms and Rain,130,2013-07-10 20:15:00
4:35 PM,73.4,73.4,100,30.05,7.0,Calm,Calm,-,N/A,Rain,Rain,0,2013-07-10 20:35:00
4:55 PM,73.4,73.4,100,30.05,10.0,Calm,Calm,-,N/A,Rain,Light Rain,0,2013-07-10 20:55:00
5:15 PM,73.4,73.4,100,30.06,7.0,West,4.6,-,N/A,Rain,Rain,270,2013-07-10 21:15:00
5:35 PM,73.4,73.4,100,30.06,10.0,West,4.6,-,N/A,Rain,Rain,270,2013-07-10 21:35:00
5:55 PM,73.4,73.4,100,30.04,10.0,West,4.6,-,N/A,Rain,Light Rain,270,2013-07-10 21:55:00
6:15 PM,73.4,73.4,100,30.02,10.0,WNW,4.6,-,N/A,Rain,Light Rain,300,2013-07-10 22:15:00
6:35 PM,73.4,73.4,100,30.01,10.0,NW,3.5,-,N/A,,Light Drizzle,320,2013-07-10 22:35:00
6:55 PM,75.2,73.4,94,30.01,10.0,Calm,Calm,-,N/A,,Scattered Clouds,0,2013-07-10 22:55:00
7:15 PM,75.2,73.4,94,30.00,10.0,Calm,Calm,-,N/A,,Clear,0,2013-07-10 23:15:00
7:35 PM,75.2,73.4,94,30.00,10.0,Calm,Calm,-,N/A,,Clear,0,2013-07-10 23:35:00
7:55 PM,73.4,73.4,100,30.01,10.0,NW,5.8,-,N/A,,Clear,310,2013-07-10 23:55:00
8:15 PM,73.4,73.4,100,30.01,10.0,NW,5.8,-,N/A,,Clear,320,2013-07-11 00:15:00
8:35 PM,73.4,73.4,100,30.01,10.0,Calm,Calm,-,N/A,,Clear,0,2013-07-11 00:35:00
8:55 PM,73.4,73.4,100,30.01,10.0,Calm,Calm,-,N/A,,Clear,0,2013-07-11 00:55:00
9:15 PM,73.4,73.4,100,30.02,10.0,Calm,Calm,-,N/A,,Scattered Clouds,0,2013-07-11 01:15:00
9:35 PM,73.4,73.4,100,30.03,10.0,Calm,Calm,-,N/A,,Clear,0,2013-07-11 01:35:00
9:55 PM,73.4,73.4,100,30.03,10.0,Calm,Calm,-,N/A,,Clear,0,2013-07-11 01:55:00
10:15 PM,73.4,73.4,100,30.04,10.0,NNW,3.5,-,N/A,,Clear,330,2013-07-11 02:15:00
10:35 PM,73.4,73.4,100,30.03,10.0,NNW,3.5,-,N/A,,Clear,340,2013-07-11 02:35:00
10:55 PM,73.4,73.4,100,30.04,10.0,ESE,4.6,-,N/A,,Scattered Clouds,120,2013-07-11 02:55:00
11:15 PM,71.6,71.6,100,30.04,10.0,Calm,Calm,-,N/A,,Mostly Cloudy,0,2013-07-11 03:15:00
11:35 PM,71.6,71.6,100,30.03,1.5,ESE,3.5,-,N/A,,Overcast,110,2013-07-11 03:35:00
11:55 PM,71.6,71.6,100,30.04,2.0,Calm,Calm,-,N/A,,Overcast,0,2013-07-11 03:55:00